Location: Caltech
(34.1382°N, 118.1253°W)
Time: 05:07:57
(UTC-07:00)

Cosmos 1697 Rocket - Visible Passes

Search period start: 21 August 2017 00:00
Search period end: 31 August 2017 00:00
Orbit: 832 x 844 km, 71.0° (Epoch: 21 August)

Date Brightness Start Highest point End Pass type
(mag) Time Alt. Az. Time Alt. Az. Time Alt. Az.
21 Aug 4.9 04:14:39 10° N 04:19:22 26° ENE 04:24:02 10° ESE visible
21 Aug 6.3 20:50:03 10° WNW 20:50:50 10° NW 20:51:39 10° NW visible
22 Aug 4.9 03:58:36 10° N 04:03:11 24° ENE 04:07:43 10° ESE visible
22 Aug 3.1 05:41:58 10° NW 05:47:13 40° WSW 05:52:27 10° S visible
22 Aug 6.1 20:32:56 10° WNW 20:34:37 11° NW 20:36:17 10° NW visible
23 Aug 5.0 03:42:35 10° N 03:47:00 23° ENE 03:51:22 10° ESE visible
23 Aug 3.0 05:25:46 10° NW 05:31:06 43° WSW 05:36:24 10° S visible
23 Aug 5.9 20:16:12 10° WNW 20:18:24 12° NW 20:20:37 10° NNW visible
24 Aug 5.0 03:26:33 10° N 03:30:47 21° ENE 03:35:00 10° ESE visible
24 Aug 2.9 05:09:33 10° NNW 05:14:58 47° WSW 05:20:21 10° S visible
24 Aug 5.8 19:59:33 10° W 20:02:11 13° NW 20:04:49 10° NNW visible
25 Aug 5.1 03:10:34 10° NNE 03:14:36 20° ENE 03:18:37 10° ESE visible
25 Aug 2.8 04:53:22 10° NNW 04:58:51 51° WSW 05:04:17 10° S visible
26 Aug 5.1 02:54:34 10° NNE 02:58:24 18° ENE 03:02:12 10° E visible
26 Aug 2.7 04:37:11 10° NNW 04:42:43 56° WSW 04:48:13 10° S visible
27 Aug 5.2 02:38:36 10° NNE 02:42:12 17° ENE 02:45:46 10° E visible
27 Aug 2.6 04:20:59 10° NNW 04:26:34 61° WSW 04:28:46 36° S visible
28 Aug 5.2 02:22:39 10° NNE 02:26:00 16° NE 02:27:40 14° ENE visible
28 Aug 3.0 04:04:49 10° NNW 04:09:12 52° NW 04:09:12 52° NW visible
29 Aug 5.3 02:06:44 10° NNE 02:09:45 14° NE 02:09:45 14° NE visible
29 Aug 4.0 03:48:39 10° NNW 03:51:22 29° NNW 03:51:22 29° NNW visible
30 Aug 5.4 01:50:52 10° NNE 01:52:28 13° NE 01:52:28 13° NE visible
30 Aug 4.6 03:32:29 10° NNW 03:34:07 20° NNW 03:34:07 20° NNW visible
